Regional Weather Roundup
Issued by NWS

Home | Current Version | Previous Version | Text Only | Print | Product List | Glossary Off
Versions: 1 2 3 4 5 6 7 8 9 10 11 12 13 14 15 16 17 18 19 20 21 22 23 24 25 26 27 28 29 30 31 32 33 34 35 36 37 38 39 40 41 42 43 44 45 46 47 48 49 50

000
ASUS43 KTOP 311508
RWRKS

WEATHER ROUNDUP FOR KANSAS
NATIONAL WEATHER SERVICE GOODLAND KS
1000 AM CDT FRI JUL 31 2015

NOTE:  "FAIR" INDICATES FEW OR NO CLOUDS BELOW 12,000 FEET WITH NO
SIGNIFICANT WEATHER AND/OR OBSTRUCTIONS TO VISIBILITY.

KSZ001>006-013>018-027>032-041>047-311600-
NORTHWEST KANSAS

CITY           SKY/WX    TMP DP  RH WIND       PRES   REMARKS
GOODLAND       SUNNY     75  67  76 S10       30.29S
HAYS           SUNNY     79  64  61 W6        30.22F
HILL CITY      SUNNY     81  71  71 W9        30.22F
RUSSELL        SUNNY     79  70  74 SW5       30.20F
$$

KSZ061>065-074>080-084>089-311600-
SOUTHWEST KANSAS

CITY           SKY/WX    TMP DP  RH WIND       PRES   REMARKS
DODGE CITY     PTSUNNY   75  67  76 S3        30.25F
ELKHART          N/A     66  61  84 SW7         N/A
GARDEN CITY    CLOUDY    75  70  84 SW9       30.26R
GREAT BEND     MOSUNNY   77  70  78 SW7       30.21F
LIBERAL        CLOUDY    73  68  83 CALM      30.27R
PRATT          MOSUNNY   79  68  69 CALM      30.22F
$$

KSZ066>073-081>083-090>101-311600-
SOUTHEAST KANSAS

CITY           SKY/WX    TMP DP  RH WIND       PRES   REMARKS
CHANUTE        SUNNY     82  64  54 SE6       30.17F
COFFEYVILLE    MOSUNNY   82  70  66 VRB5      30.16F
HUTCHINSON     SUNNY     79  67  66 CALM      30.20F
MEDICINE LODGE   N/A     79  71  76 E3        30.21S
NEWTON         SUNNY     79  63  57 CALM      30.22F
PARSONS        SUNNY     82  69  64 CALM      30.18S
WICHITA INTL   PTSUNNY   82  65  56 CALM      30.18F
WICHITA JABRA  SUNNY     81  66  60 CALM      30.19S
WICHITA MCCONL MOSUNNY   80  65  60 SE2       30.18F
WINFIELD       SUNNY     80  71  74 E5        30.19S
$$

KSZ007>012-019>026-033>040-048>060-102>105-311600-
NORTHEAST KANSAS

CITY           SKY/WX    TMP DP  RH WIND       PRES   REMARKS
CONCORDIA      SUNNY     80  70  71 CALM      30.19S
EMPORIA        SUNNY     78  66  66 CALM      30.18F
LAWRENCE       SUNNY     77  68  73 CALM      30.17F
MANHATTAN      SUNNY     77  69  76 CALM      30.18S
MARYSVILLE     SUNNY     79  70  73 CALM      30.19S
OLATHE IND     MOSUNNY   80  64  58 VRB3      30.19S
OLATHE EXE     SUNNY     80  65  59 CALM      30.18S
SALINA         SUNNY     81  71  71 SW6       30.19S
TOPEKA BILLARD SUNNY     77  68  73 S3        30.17F
TOPEKA FORBES  SUNNY     80  66  62 CALM      30.18F
$$


USA.gov is the U.S. government's official web portal to all federal, state and local government web resources and services.